QPF
0.01 0.01 0.01 0.02 0.03 0.05 0.08 0.10 0.10 0.04 0.06 0.07 0.03 0.02 0.01 0.00 0.00 0.00 0.00 0.00 0.00 0.00 0.00 0.00 0.01 0.01 0.02 0.03 0.03 0.02 0.01 0.00 0.00 0.01 0.01 0.01 0.01 0.01
0.00 0.01 0.01 0.02 0.03 0.04 0.07 0.10 0.10 0.07 0.06 0.07 0.03 0.00 0.00 0.00 0.00 0.00 0.00 0.00 0.00 0.00 0.00 0.00 0.00 0.00 0.00 0.00 0.00 0.00 0.00 0.00 0.00 0.00 0.00 0.00 0.00 0.00
0.00 0.00 0.00 0.01 0.02 0.04 0.04 0.06 0.07 0.08 0.06 0.02 0.01 0.01 0.00 0.00 0.00 0.00 0.00 0.00 0.00 0.00 0.00 0.00 0.00 0.00 0.00 0.00 0.00 0.00 0.00 0.00 0.00 0.00 0.00 0.00 0.00 0.00
0.00 0.00 0.00 0.00 0.00 0.00 0.00 0.00 0.00 0.01 0.01 0.01 0.01 0.01 0.01 0.00 0.00 0.00 0.00 0.00 0.00 0.00 0.00 0.00 0.00 0.00 0.00 0.00 0.00 0.00 0.00 0.00 0.00 0.00 0.00 0.00 0.00 0.00
0.00 0.00 0.00 0.00 0.00 0.00 0.00 0.00 0.00 0.00 0.00 0.00 0.00 0.00 0.00 0.00 0.00 0.00 0.00 0.00 0.00 0.00 0.00 0.00 0.00 0.00 0.00 0.00 0.00 0.00 0.00 0.00 0.00 0.00 0.00 0.00 0.00 0.00
0.00 0.00 0.00 0.00 0.00 0.00 0.00 0.00 0.00 0.00 0.00 0.00 0.00 0.00 0.00 0.00 0.00 0.00 0.00 0.00 0.00 0.00 0.00 0.00 0.00 0.00 0.00 0.00 0.00 0.00 0.00 0.00 0.00 0.00 0.00 0.00 0.00 0.00
0.00 0.00 0.00 0.00 0.00 0.00 0.00 0.00 0.00 0.00 0.00 0.00 0.00 0.00 0.00 0.00 0.00 0.00 0.00 0.00 0.00 0.00 0.00 0.00 0.00 0.00 0.00 0.00 0.00 0.00 0.00 0.00 0.00 0.00 0.01 0.00 0.00 0.00
0.00 0.00 0.00 0.00 0.00 0.00 0.00 0.00 0.00 0.00 0.00 0.00 0.00 0.00 0.00 0.00 0.00 0.00 0.00 0.00 0.00 0.00 0.00 0.00 0.00 0.00 0.00 0.00 0.00 0.00 0.00 0.00 0.00 0.00 0.00 0.00 0.00 0.00
0.00 0.00 0.00 0.00 0.00 0.00 0.00 0.00 0.00 0.00 0.00 0.00 0.00 0.00 0.00 0.00 0.00 0.00 0.00 0.00 0.00 0.00 0.00 0.00 0.00 0.00 0.00 0.00 0.00 0.00 0.00 0.00 0.00 0.00 0.00 0.00 0.00 0.00
0.00 0.00 0.00 0.00 0.00 0.00 0.00 0.00 0.00 0.00 0.00 0.00 0.00 0.00 0.00 0.00 0.00 0.00 0.00 0.00 0.00 0.00 0.00 0.00 0.00 0.00 0.00 0.00 0.00 0.00 0.00 0.00 0.00 0.00 0.00 0.00 0.00 0.00
0.00 0.00 0.00 0.00 0.00 0.00 0.00 0.00 0.00 0.00 0.00 0.00 0.00 0.00 0.00 0.00 0.00 0.00 0.00 0.00 0.00 0.00 0.00 0.00 0.00 0.00 0.00 0.00 0.00 0.00 0.00 0.00 0.00 0.00 0.00 0.00 0.00 0.00
0.00 0.00 0.00 0.00 0.00 0.00 0.00 0.00 0.00 0.00 0.00 0.00 0.00 0.00 0.00 0.00 0.00 0.00 0.00 0.00 0.00 0.00 0.00 0.00 0.00 0.00 0.00 0.00 0.00 0.00 0.00 0.00 0.00 0.00 0.00 0.00 0.00 0.00
0.00 0.00 0.00 0.00 0.00 0.00 0.00 0.00 0.00 0.00 0.00 0.00 0.00 0.00 0.00 0.00 0.00 0.00 0.00 0.00 0.00 0.00 0.00 0.00 0.00 0.00 0.00 0.00 0.00 0.00 0.00 0.00 0.00 0.00 0.00 0.00 0.00 0.00
0.00 0.00 0.00 0.00 0.00 0.00 0.00 0.00 0.00 0.00 0.00 0.00 0.00 0.00 0.00 0.00 0.00 0.00 0.00 0.00 0.00 0.00 0.00 0.00 0.00 0.00 0.00 0.00 0.00 0.00 0.00 0.00 0.00 0.00 0.00 0.00 0.00 0.00
0.00 0.00 0.00 0.00 0.00 0.00 0.00 0.00 0.00 0.00 0.00 0.00 0.00 0.00 0.00 0.00 0.00 0.00 0.00 0.00 0.00 0.00 0.00 0.00 0.00 0.00 0.00 0.00 0.00 0.00 0.00 0.00 0.00 0.00 0.00 0.00 0.00 0.00
0.00 0.00 0.00 0.00 0.00 0.00 0.00 0.00 0.00 0.00 0.00 0.00 0.00 0.00 0.00 0.00 0.00 0.00 0.00 0.00 0.00 0.00 0.00 0.00 0.00 0.00 0.00 0.00 0.00 0.00 0.00 0.00 0.00 0.00 0.00 0.00 0.00 0.00
0.00 0.00 0.00 0.00 0.00 0.00 0.00 0.00 0.00 0.00 0.00 0.00 0.00 0.00 0.00 0.00 0.00 0.00 0.00 0.00 0.00 0.00 0.00 0.00 0.00 0.00 0.00 0.00 0.00 0.00 0.00 0.00 0.00 0.00 0.00 0.00 0.00 0.00
0.00 0.00 0.00 0.00 0.00 0.00 0.00 0.00 0.00 0.00 0.00 0.00 0.00 0.00 0.00 0.00 0.00 0.00 0.00 0.00 0.00 0.00 0.00 0.00 0.00 0.00 0.00 0.00 0.00 0.00 0.00 0.00 0.00 0.00 0.00 0.00 0.00 0.00
0.00 0.00 0.00 0.00 0.00 0.00 0.00 0.00 0.00 0.00 0.00 0.00 0.00 0.00 0.00 0.00 0.00 0.00 0.00 0.00 0.00 0.00 0.00 0.00 0.00 0.00 0.01 0.00 0.00 0.00 0.00 0.00 0.00 0.00 0.00 0.00 0.00 0.00
0.00 0.00 0.00 0.00 0.00 0.00 0.00 0.00 0.00 0.00 0.00 0.00 0.00 0.00 0.00 0.00 0.00 0.00 0.00 0.00 0.00 0.00 0.00 0.00 0.00 0.00 0.01 0.01 0.01 0.00 0.00 0.00 0.00 0.00 0.00 0.00 0.00 0.00
0.00 0.00 0.00 0.00 0.00 0.00 0.00 0.00 0.00 0.00 0.00 0.00 0.00 0.00 0.00 0.00 0.00 0.00 0.00 0.00 0.00 0.00 0.00 0.00 0.00 0.00 0.00 0.00 0.01 0.00 0.00 0.00 0.00 0.00 0.00 0.01 0.00 0.00
0.00 0.00 0.00 0.01 0.01 0.00 0.00 0.00 0.00 0.00 0.00 0.00 0.00 0.00 0.00 0.00 0.00 0.00 0.00 0.00 0.00 0.00 0.00 0.00 0.00 0.00 0.00 0.01 0.00 0.00 0.00 0.00 0.00 0.00 0.00 0.01 0.02 0.02
0.00 0.00 0.00 0.01 0.01 0.00 0.00 0.00 0.00 0.00 0.00 0.00 0.00 0.00 0.00 0.00 0.00 0.00 0.00 0.00 0.00 0.00 0.00 0.00 0.00 0.00 0.00 0.00 0.00 0.00 0.00 0.00 0.00 0.00 0.00 0.00 0.00 0.00
MSLP
1010.18 1009.90 1009.57 1009.28 1009.11 1008.93 1008.72 1008.67 1008.34 1008.04 1008.51 1009.25 1009.98 1010.65 1010.86 1011.12 1011.26 1011.37 1011.66 1011.38 1011.51 1011.41 1011.42 1011.46 1011.80 1011.72 1011.74 1011.72 1011.75 1011.45 1011.40 1010.99 1011.01 1010.97 1010.85 1011.19 1011.20 1011.07
1010.17 1009.93 1009.92 1009.80 1009.49 1009.26 1009.06 1008.83 1008.54 1008.41 1008.90 1009.77 1010.56 1010.99 1011.27 1011.39 1011.58 1011.55 1011.89 1011.85 1011.94 1011.84 1011.59 1011.63 1012.00 1011.73 1011.64 1011.70 1011.86 1011.55 1011.21 1011.18 1011.00 1010.99 1010.76 1010.58 1010.80 1010.70
1010.53 1010.26 1010.23 1010.13 1009.99 1009.86 1009.59 1009.34 1009.18 1009.26 1009.37 1010.51 1010.82 1011.42 1011.63 1011.70 1011.88 1011.96 1012.03 1011.87 1011.98 1011.79 1012.00 1011.81 1011.78 1011.84 1011.82 1011.98 1011.62 1011.65 1011.45 1011.32 1011.06 1011.02 1010.83 1010.74 1010.67 1010.58
1010.75 1010.53 1010.53 1010.36 1010.42 1010.41 1010.14 1010.13 1010.11 1010.09 1009.95 1010.32 1011.10 1011.62 1011.82 1012.05 1012.14 1012.14 1012.13 1012.14 1012.15 1011.91 1011.97 1011.86 1011.77 1012.04 1011.82 1011.91 1011.77 1011.70 1011.41 1011.22 1011.18 1011.02 1010.94 1010.71 1010.82 1010.34
1011.49 1011.33 1011.15 1010.82 1010.86 1010.89 1010.84 1010.80 1010.72 1010.52 1010.30 1010.54 1011.42 1011.86 1012.16 1012.29 1012.29 1012.24 1012.16 1012.12 1012.07 1011.94 1011.82 1011.89 1011.69 1011.73 1011.78 1011.68 1011.75 1011.44 1011.44 1011.50 1011.33 1011.06 1010.59 1010.58 1010.44 1010.02
1011.91 1011.94 1011.94 1011.82 1011.60 1011.29 1011.26 1011.29 1011.18 1011.01 1010.95 1011.15 1011.63 1012.11 1012.35 1012.57 1012.58 1012.33 1012.18 1012.13 1011.94 1011.71 1011.77 1011.72 1011.87 1011.63 1011.58 1011.62 1011.22 1011.54 1011.45 1011.42 1011.04 1010.59 1010.63 1010.25 1009.82 1010.01
1012.11 1012.16 1012.24 1012.18 1012.10 1012.03 1011.67 1011.73 1011.66 1011.63 1011.63 1011.71 1011.92 1012.15 1012.39 1012.52 1012.75 1012.86 1012.77 1012.41 1011.92 1012.05 1012.12 1012.10 1011.82 1011.70 1011.61 1011.40 1011.29 1011.11 1011.21 1011.21 1010.80 1010.49 1010.29 1010.07 1009.93 1009.72
1011.85 1011.97 1012.14 1012.23 1012.36 1012.29 1012.30 1012.38 1012.32 1012.04 1012.05 1012.10 1012.26 1012.43 1012.78 1012.92 1013.03 1013.17 1013.05 1012.80 1012.62 1012.28 1012.39 1012.23 1011.84 1011.74 1011.41 1011.03 1010.92 1010.93 1010.89 1010.75 1010.55 1010.49 1010.25 1009.99 1009.83 1009.63
1011.83 1012.00 1012.15 1012.41 1012.41 1012.47 1012.57 1012.53 1012.57 1012.56 1012.63 1012.49 1012.64 1012.93 1013.02 1013.32 1013.42 1013.38 1013.38 1013.40 1013.21 1012.73 1012.60 1012.08 1011.64 1011.62 1011.29 1011.09 1010.93 1010.75 1010.83 1010.63 1010.51 1010.35 1010.09 1009.78 1009.49 1009.34
1011.98 1011.93 1012.07 1012.38 1012.62 1012.68 1012.73 1012.80 1012.80 1012.97 1013.15 1013.02 1013.18 1013.42 1013.55 1013.64 1013.66 1013.76 1013.85 1013.72 1013.39 1012.81 1012.88 1012.72 1012.15 1012.03 1011.71 1011.32 1010.85 1010.88 1010.82 1010.59 1010.40 1010.09 1009.72 1009.44 1009.12 1008.74
1011.88 1011.99 1012.11 1012.18 1012.90 1013.05 1012.74 1012.91 1013.17 1013.58 1013.93 1013.80 1013.67 1013.71 1013.91 1014.03 1014.20 1014.10 1014.05 1014.23 1013.88 1013.50 1013.66 1013.70 1012.91 1012.36 1011.60 1011.12 1010.74 1010.75 1010.71 1010.39 1010.10 1009.68 1009.28 1008.83 1008.53 1008.26
1011.87 1011.96 1012.29 1012.35 1012.63 1012.74 1012.86 1012.93 1012.95 1013.13 1013.53 1013.89 1014.14 1014.12 1014.00 1014.18 1014.43 1014.50 1014.50 1014.63 1014.56 1013.97 1014.05 1014.24 1013.55 1013.34 1012.31 1011.07 1011.00 1011.00 1010.59 1010.25 1009.81 1009.50 1008.99 1008.65 1008.36 1008.06
1011.42 1011.77 1011.98 1012.39 1012.57 1012.84 1012.87 1012.96 1013.20 1013.31 1013.78 1013.83 1014.05 1014.13 1014.20 1014.16 1014.39 1014.57 1014.61 1014.72 1014.70 1014.61 1014.14 1014.33 1013.99 1013.83 1013.49 1012.42 1011.26 1010.84 1010.65 1010.25 1009.98 1009.45 1008.87 1008.62 1008.24 1007.84
1011.22 1011.34 1011.50 1011.95 1012.36 1012.73 1012.90 1013.00 1013.37 1013.58 1013.58 1013.77 1014.03 1014.14 1014.27 1014.48 1014.59 1014.72 1014.78 1014.76 1014.61 1014.44 1014.27 1014.51 1014.31 1014.10 1013.59 1012.82 1011.92 1010.67 1010.61 1010.16 1009.68 1009.26 1008.90 1008.38 1007.92 1007.48
1010.63 1010.78 1011.29 1011.77 1012.08 1012.46 1012.83 1012.95 1013.14 1013.42 1013.54 1013.74 1013.85 1013.99 1014.28 1014.61 1014.91 1014.78 1014.56 1014.47 1014.40 1014.06 1013.80 1014.04 1014.24 1013.99 1013.63 1012.93 1012.32 1011.43 1010.79 1009.71 1009.38 1008.92 1008.47 1007.95 1007.48 1007.01
1010.60 1010.90 1011.03 1011.45 1011.91 1012.08 1012.53 1012.64 1012.95 1013.06 1013.28 1013.49 1013.76 1014.03 1014.39 1014.66 1014.60 1014.54 1014.51 1014.40 1014.30 1013.80 1013.54 1013.53 1013.65 1013.58 1013.07 1012.51 1012.08 1011.24 1010.82 1010.35 1009.00 1008.51 1008.03 1007.46 1006.93 1006.52
1009.98 1010.64 1011.08 1011.16 1011.41 1011.83 1012.13 1012.35 1012.62 1012.92 1013.17 1013.52 1013.72 1013.99 1014.28 1014.37 1014.45 1014.43 1014.33 1014.46 1014.36 1013.86 1013.59 1013.27 1012.92 1012.75 1012.37 1011.94 1011.07 1010.58 1010.07 1009.50 1008.80 1008.22 1007.72 1006.94 1006.34 1005.90
1009.29 1009.75 1010.22 1010.65 1010.76 1011.02 1011.35 1011.70 1012.28 1012.65 1012.93 1013.22 1013.68 1013.88 1014.15 1014.31 1014.29 1014.34 1014.20 1014.36 1014.24 1013.84 1013.57 1013.17 1012.85 1012.40 1011.77 1010.66 1009.82 1009.63 1009.52 1009.13 1008.50 1008.05 1007.48 1006.78 1005.73 1005.14
1008.04 1008.78 1009.29 1009.76 1010.16 1010.46 1010.64 1011.01 1011.57 1012.09 1012.44 1012.94 1013.40 1013.65 1014.03 1014.17 1014.07 1014.10 1014.08 1014.05 1013.89 1013.59 1013.33 1013.03 1012.62 1012.35 1011.76 1010.99 1010.00 1009.27 1009.40 1009.03 1008.39 1007.55 1006.99 1006.45 1005.60 1004.41
1007.20 1007.66 1008.25 1008.96 1009.46 1009.83 1010.03 1010.41 1010.99 1011.36 1011.99 1012.39 1012.92 1013.14 1013.82 1014.15 1013.97 1013.69 1013.70 1013.71 1013.65 1013.39 1013.02 1012.69 1012.30 1012.02 1011.87 1011.44 1010.68 1009.56 1009.28 1008.66 1008.02 1007.18 1006.52 1005.83 1005.01 1003.84
1006.29 1006.86 1007.47 1008.21 1008.79 1009.16 1009.49 1009.81 1010.29 1010.78 1011.29 1011.73 1012.25 1012.68 1012.76 1013.50 1013.70 1013.60 1013.58 1013.32 1013.18 1013.09 1012.68 1012.56 1012.19 1011.84 1011.45 1011.11 1010.45 1009.30 1008.35 1008.09 1007.54 1006.85 1006.17 1005.47 1004.58 1003.34
1005.43 1005.97 1006.69 1007.44 1008.04 1008.68 1009.07 1009.49 1010.00 1010.41 1010.84 1011.31 1011.75 1012.31 1012.49 1012.95 1013.21 1013.07 1013.09 1013.15 1013.13 1013.00 1012.65 1012.27 1011.94 1011.51 1011.13 1010.69 1009.97 1009.08 1008.05 1007.27 1006.68 1006.05 1005.59 1005.18 1004.80 1003.78
1004.68 1005.23 1005.98 1006.66 1007.29 1007.89 1008.47 1009.02 1009.46 1009.94 1010.31 1010.93 1011.37 1011.83 1012.15 1012.51 1012.72 1012.74 1012.74 1012.76 1012.80 1012.70 1012.46 1012.12 1011.78 1011.33 1010.73 1010.25 1009.51 1008.73 1007.99 1007.15 1006.38 1005.64 1004.97 1004.35 1003.72 1003.37
Thickness
5555 5548 5542 5539 5538 5539 5542 5547 5553 5560 5559 5556 5552 5546 5547 5547 5549 5550 5550 5552 5552 5553 5556 5557 5554 5555 5553 5552 5552 5555 5554 5561 5559 5560 5559 5555 5553 5552
5554 5548 5541 5536 5535 5535 5538 5542 5548 5553 5554 5543 5537 5535 5535 5536 5536 5538 5538 5537 5538 5539 5541 5543 5542 5545 5544 5541 5539 5540 5542 5541 5544 5542 5542 5542 5540 5540
5551 5545 5539 5535 5532 5531 5532 5533 5536 5537 5543 5528 5526 5522 5522 5525 5525 5526 5526 5529 5528 5530 5528 5530 5529 5528 5527 5523 5527 5524 5524 5524 5527 5525 5527 5527 5527 5529
5550 5546 5540 5535 5530 5526 5527 5525 5524 5524 5529 5526 5516 5512 5511 5511 5512 5513 5515 5516 5517 5518 5516 5515 5515 5512 5514 5511 5510 5509 5510 5511 5511 5512 5512 5515 5513 5519
5541 5537 5535 5534 5529 5524 5520 5517 5515 5517 5518 5517 5507 5504 5502 5501 5502 5503 5504 5506 5506 5505 5504 5504 5505 5502 5501 5499 5497 5500 5499 5497 5498 5499 5503 5503 5503 5506
5535 5531 5526 5523 5521 5521 5518 5514 5513 5512 5511 5507 5501 5495 5493 5492 5492 5494 5497 5496 5496 5497 5495 5494 5492 5493 5493 5491 5494 5489 5490 5488 5491 5493 5491 5493 5496 5493
5530 5526 5521 5518 5515 5512 5513 5509 5506 5504 5502 5499 5495 5493 5490 5488 5484 5482 5482 5484 5486 5484 5482 5482 5484 5485 5484 5483 5482 5483 5481 5478 5480 5480 5479 5480 5480 5481
5528 5523 5518 5514 5509 5506 5503 5499 5497 5499 5496 5494 5491 5488 5483 5480 5478 5475 5474 5474 5472 5476 5473 5472 5474 5473 5474 5475 5473 5471 5469 5468 5467 5465 5465 5465 5464 5464
5524 5519 5513 5507 5503 5500 5496 5493 5490 5487 5484 5484 5481 5476 5474 5468 5466 5464 5463 5460 5459 5461 5460 5461 5463 5460 5460 5459 5458 5457 5453 5451 5449 5448 5447 5447 5448 5448
5517 5514 5509 5503 5497 5494 5490 5486 5483 5479 5474 5473 5468 5463 5459 5456 5454 5451 5448 5447 5447 5449 5446 5442 5446 5442 5441 5440 5439 5435 5432 5431 5430 5430 5430 5429 5429 5430
5511 5507 5502 5497 5487 5483 5483 5477 5472 5465 5460 5458 5455 5451 5446 5443 5439 5438 5435 5430 5431 5432 5426 5423 5426 5426 5426 5425 5423 5419 5416 5415 5413 5411 5409 5409 5408 5408
5502 5498 5491 5488 5481 5477 5473 5469 5465 5460 5453 5446 5441 5438 5435 5430 5426 5422 5420 5415 5413 5415 5412 5406 5407 5406 5407 5408 5404 5399 5399 5395 5393 5390 5389 5386 5384 5384
5496 5489 5483 5476 5471 5465 5462 5457 5453 5448 5440 5436 5431 5428 5424 5421 5416 5411 5408 5404 5401 5398 5399 5393 5390 5388 5387 5390 5385 5382 5380 5377 5373 5371 5371 5369 5368 5368
5486 5482 5477 5469 5461 5454 5449 5445 5439 5434 5431 5425 5420 5417 5413 5408 5405 5401 5397 5394 5391 5388 5384 5379 5374 5370 5369 5369 5368 5368 5361 5359 5360 5359 5357 5356 5354 5353
5478 5475 5468 5459 5452 5445 5438 5433 5429 5423 5420 5414 5411 5407 5402 5397 5392 5390 5387 5383 5380 5379 5376 5369 5362 5356 5352 5351 5350 5349 5351 5352 5349 5348 5347 5345 5344 5344
5465 5460 5456 5448 5441 5436 5428 5423 5418 5414 5409 5405 5400 5395 5390 5385 5383 5380 5376 5372 5369 5368 5365 5360 5353 5346 5342 5340 5338 5340 5336 5335 5340 5339 5339 5337 5337 5336
5455 5448 5440 5436 5431 5425 5418 5412 5408 5403 5397 5392 5389 5384 5380 5377 5374 5369 5365 5361 5355 5355 5351 5348 5344 5338 5335 5334 5336 5334 5332 5331 5331 5330 5330 5331 5331 5331
5447 5440 5431 5424 5422 5418 5412 5405 5398 5393 5387 5382 5376 5373 5368 5364 5361 5357 5354 5349 5346 5342 5339 5337 5333 5330 5329 5330 5334 5330 5325 5324 5323 5321 5321 5322 5326 5328
5442 5430 5423 5417 5411 5408 5405 5398 5391 5385 5378 5371 5365 5361 5356 5354 5352 5348 5344 5341 5338 5334 5331 5328 5325 5321 5322 5321 5321 5323 5316 5313 5313 5316 5317 5317 5320 5326
5432 5426 5418 5409 5403 5399 5396 5390 5383 5378 5370 5366 5358 5354 5345 5340 5340 5340 5336 5332 5327 5325 5321 5319 5318 5315 5311 5310 5309 5311 5309 5307 5307 5310 5312 5314 5318 5325
5424 5418 5410 5400 5395 5390 5386 5381 5375 5369 5364 5359 5352 5347 5345 5335 5330 5328 5324 5324 5321 5316 5313 5307 5307 5307 5305 5303 5304 5307 5307 5303 5303 5304 5307 5310 5315 5325
5415 5410 5401 5393 5386 5379 5375 5370 5364 5360 5355 5349 5345 5338 5334 5329 5323 5321 5318 5313 5309 5306 5304 5302 5301 5300 5299 5298 5298 5299 5301 5302 5303 5305 5306 5307 5310 5320
5406 5400 5392 5385 5379 5372 5366 5360 5356 5351 5347 5339 5335 5329 5324 5319 5315 5312 5309 5306 5301 5297 5295 5294 5293 5293 5294 5293 5294 5295 5295 5297 5300 5303 5306 5310 5316 5321